Bogota, Colombia

4:32 PM COT on August 28, 2016 (GMT -0500)
Eldorado International

Weather History for SKBO - February, 2013

Change the Weather History Date:

Thursday, February 14, 2013

  Actual Average Record
Temperature  
Mean Temperature 54 °F -  
Max Temperature 65 °F 66 °F 78 °F (1998)
Min Temperature 44 °F 44 °F 41 °F (2007)
Degree Days  
Heating Degree Days 10    
Growing Degree Days 4 (Base 50)    
Moisture  
Dew Point 48 °F    
Average Humidity 81    
Maximum Humidity 100    
Minimum Humidity 20    
Precipitation  
Precipitation 0.00 in 0.07 in - ()
Sea Level Pressure  
Sea Level Pressure 30.30 in    
Wind  
Wind Speed 5 mph ()    
Max Wind Speed 14 mph    
Max Gust Speed -    
Visibility 5.3 miles    
Events Fog , Rain    
Averages and records for this station are not official NWS values.
T = Trace of Precipitation, MM = Missing Value Source: Averaged Metar Reports

Daily Weather History Graph

Daily Weather History Graph

Search for Another Location

Airport or City:

Trip Planner

Search our weather history database for the weather conditions in past years. The results will help you decide how hot, cold, wet, or windy it might be!

Date:

Astronomy

Feb. 14, 2013 Rise Set
Actual Time 6:11 AM COT 6:09 PM COT
Civil Twilight 5:50 AM COT 6:31 PM COT
Nautical Twilight 5:25 AM COT 6:55 PM COT
Astronomical Twilight 5:01 AM COT 7:20 PM COT
Moon 9:22 AM COT (2/14) 9:52 PM COT (2/14)
Length of Visible Light 12h 40m
Length of Day
11h 58m
Waxing Crescent, 21% of the Moon is Illuminated
Feb 14
Waxing Crescent
Feb 17
First Quarter
Feb 25
Full
Mar 4
Last Quarter
Mar 11
New

Hourly Weather History & Observations

Time (COT) Temp. Windchill Dew Point Humidity Pressure Visibility Wind Dir Wind Speed Gust Speed Precip Events Conditions
12:00 AM 50.0 °F - 48.2 °F 94% 30.32 in 6.2 mi NNE 4.6 mph - N/A   Partly Cloudy
1:00 AM 49 °F - 48 °F 93%  in 7 mi North 4.5 mph - -   Haze
1:00 AM 48.2 °F - 48.2 °F 100% 30.30 in 6.2 mi North 3.5 mph - N/A   Partly Cloudy
2:00 AM 48.2 °F - 48.2 °F 100% 30.29 in 6.2 mi Variable 2.3 mph - N/A   Scattered Clouds
3:00 AM 46.4 °F 45.2 °F 46.4 °F 100% 30.27 in 6.2 mi NNE 3.5 mph - N/A   Partly Cloudy
4:00 AM 47 °F - 47 °F 98%  in 6 mi NE 2.2 mph - -   Haze
4:00 AM 46.4 °F - 46.4 °F 100% 30.26 in 6.2 mi Variable 2.3 mph - N/A   Partly Cloudy
5:00 AM 48.2 °F - 48.2 °F 100% 30.28 in 6.2 mi NNE 3.5 mph - N/A   Partly Cloudy
5:30 AM 44.6 °F 43.1 °F 42.8 °F 93% 30.29 in 4.3 mi North 3.5 mph - N/A Fog Fog
6:00 AM 46.4 °F 43.5 °F 44.6 °F 93% 30.29 in 6.2 mi NNE 5.8 mph - N/A Fog Patches of Fog
7:00 AM 46 °F - 45 °F 96%  in 5 mi NNE 6.7 mph - - Fog Light Fog
7:00 AM 46.4 °F 43.5 °F 44.6 °F 93% 30.30 in 5.0 mi NNE 5.8 mph - N/A Fog Fog
7:30 AM 50.0 °F - 50.0 °F 100% 30.32 in 5.0 mi NE 6.9 mph - N/A Fog Fog
8:00 AM 53.6 °F - 48.2 °F 82% 30.33 in 5.6 mi NE 9.2 mph - N/A   Partly Cloudy
9:00 AM 57.2 °F - 15.8 °F 20% 30.35 in 5.6 mi NE 6.9 mph - N/A   Partly Cloudy
10:00 AM 61 °F - 45 °F 45%  in 6 mi ENE 6.7 mph - -   Haze
10:00 AM 60.8 °F - 44.6 °F 55% 30.34 in 5.6 mi ENE 5.8 mph - N/A   Partly Cloudy
11:00 AM 64.4 °F - 46.4 °F 52% 30.33 in 5.6 mi Variable 2.3 mph - N/A   Scattered Clouds
12:00 PM 66.2 °F - 44.6 °F 46% 30.30 in 4.3 mi West 3.5 mph - N/A   Scattered Clouds
1:00 PM 64 °F - 51 °F 54%  in 4 mi SW 13.4 mph - -   Haze
1:00 PM 64.4 °F - 51.8 °F 64% 30.29 in 4.3 mi SW 13.8 mph - N/A   Scattered Clouds
2:00 PM 62.6 °F - 51.8 °F 68% 30.27 in 4.3 mi WSW 12.7 mph - N/A   Scattered Clouds
3:00 PM 60.8 °F - 51.8 °F 72% 30.24 in 5.0 mi West 11.5 mph - N/A   Light Drizzle
4:00 PM 59 °F - 54 °F 78%  in 4 mi WSW 11.2 mph - - Rain Light Drizzle
4:00 PM 59.0 °F - 53.6 °F 82% 30.24 in 4.3 mi WSW 11.5 mph - N/A   Light Drizzle
5:00 PM 60.8 °F - 53.6 °F 77% 30.23 in 4.3 mi WSW 9.2 mph - N/A   Scattered Clouds
6:00 PM 57.2 °F - 53.6 °F 88% 30.24 in 4.3 mi WSW 6.9 mph - N/A   Scattered Clouds
7:00 PM 56 °F - 51 °F 79%  in 4 mi North 6.7 mph - -   Partly Cloudy
7:00 PM 55.4 °F - 51.8 °F 88% 30.27 in 4.3 mi North 3.5 mph - N/A   Scattered Clouds
8:00 PM 55.4 °F - 51.8 °F 88% 30.30 in 4.3 mi WNW 4.6 mph - N/A   Mostly Cloudy
9:00 PM 55.4 °F - 51.8 °F 88% 30.33 in 6.2 mi WNW 3.5 mph - N/A   Mostly Cloudy
10:00 PM 55 °F - 52 °F 84%  in 6 mi WNW 4.5 mph - -   Haze
10:00 PM 55.4 °F - 51.8 °F 88% 30.35 in 6.2 mi WNW 4.6 mph - N/A   Mostly Cloudy
11:00 PM 55.4 °F - 51.8 °F 88% 30.36 in 6.2 mi Variable 2.3 mph - N/A   Mostly Cloudy